Baker City, OR

7:59 AM PDT on August 25, 2016 (GMT -0700)
Baker City Municipal

Weather History for KBKE - December, 2013

Change the Weather History Date:

Tuesday, December 17, 2013

  Actual Average Record
Temperature  
Mean Temperature 24 °F 24 °F  
Max Temperature 39 °F 33 °F 48 °F (1976)
Min Temperature 9 °F 15 °F -22 °F (1964)
Degree Days  
Heating Degree Days 41 41  
Month to date heating degree days 802 672  
Since 1 July heating degree days 2727 2709  
Cooling Degree Days 0 0  
Month to date cooling degree days 0 0  
Year to date cooling degree days 258 169  
Moisture  
Dew Point 15 °F    
Average Humidity 75    
Maximum Humidity 100    
Minimum Humidity 50    
Precipitation  
Precipitation 0.00 in 0.03 in 0.29 in (1961)
Month to date precipitation 0.10 0.53  
Year to date precipitation 8.41 9.68  
Sea Level Pressure  
Sea Level Pressure 30.41 in    
Wind  
Wind Speed 3 mph (SW)    
Max Wind Speed 9 mph    
Max Gust Speed 12 mph    
Visibility 6 miles    
Events Fog    
T = Trace of Precipitation, MM = Missing Value Source: NWS Daily Summary

Daily Weather History Graph

Daily Weather History Graph

Search for Another Location

Airport or City:

Trip Planner

Search our weather history database for the weather conditions in past years. The results will help you decide how hot, cold, wet, or windy it might be!

Date:

Astronomy

Dec. 17, 2013 Rise Set
Actual Time 7:23 AM PST 4:11 PM PST
Civil Twilight 6:49 AM PST 4:45 PM PST
Nautical Twilight 6:12 AM PST 5:22 PM PST
Astronomical Twilight 5:37 AM PST 5:58 PM PST
Moon 4:58 PM PST (12/17) 7:20 AM PST (12/17)
Length of Visible Light 9h 55m
Length of Day
8h 47m
Full, 100% of the Moon is Illuminated
Dec 17
Full
Dec 25
Last Quarter
Jan 1
New
Jan 7
First Quarter
Jan 15
Full

Hourly Weather History & Observations

Time (PST) Temp. Windchill Dew Point Humidity Pressure Visibility Wind Dir Wind Speed Gust Speed Precip Events Conditions
12:23 AM 12.0 °F - 9.0 °F 88% 30.44 in 2.5 mi Calm Calm - N/A   Partly Cloudy
12:25 AM 10.9 °F - 9.0 °F 92% 30.44 in 1.0 mi Calm Calm - N/A   Mist
12:28 AM 12.0 °F - 9.0 °F 88% 30.44 in 0.5 mi Calm Calm - N/A Fog Light Freezing Fog
12:32 AM 10.9 °F - 9.0 °F 92% 30.44 in 0.2 mi Calm Calm - N/A Fog Light Freezing Fog
12:43 AM 10.9 °F - 9.0 °F 92% 30.43 in 0.8 mi Calm Calm - N/A   Mist
12:46 AM 10.9 °F - 9.0 °F 92% 30.43 in 2.5 mi Calm Calm - N/A   Partly Cloudy
12:53 AM 10.9 °F - 9.0 °F 92% 30.55 in 4.0 mi Calm Calm - N/A   Clear
12:58 AM 12.0 °F - 10.0 °F 92% 30.43 in 1.8 mi Calm Calm - N/A   Clear
1:08 AM 12.9 °F - 10.0 °F 88% 30.43 in 2.5 mi Calm Calm - N/A   Partly Cloudy
1:15 AM 12.0 °F 5.9 °F 10.0 °F 92% 30.43 in 6.0 mi SSW 3.5 mph - N/A   Partly Cloudy
1:38 AM 12.9 °F - 10.9 °F 92% 30.42 in 1.0 mi Calm Calm - N/A   Mist
1:53 AM 10.0 °F - 8.1 °F 92% 30.53 in 1.2 mi Calm Calm - N/A   Scattered Clouds
1:57 AM 10.0 °F - 8.1 °F 92% 30.42 in 4.0 mi Calm Calm - N/A   Scattered Clouds
2:51 AM 10.4 °F 4.0 °F 8.6 °F 92% 30.41 in 2.5 mi North 3.5 mph - N/A   Clear
2:53 AM 10.9 °F 2.9 °F 9.0 °F 92% 30.53 in 3.0 mi North 4.6 mph - N/A   Clear
3:53 AM 19.0 °F 8.2 °F 16.0 °F 88% 30.50 in 8.0 mi South 9.2 mph - N/A   Clear
4:53 AM 17.1 °F - 14.0 °F 88% 30.49 in 9.0 mi Calm Calm - N/A   Clear
5:53 AM 12.9 °F - 10.0 °F 88% 30.52 in 8.0 mi Calm Calm - N/A   Clear
6:53 AM 10.9 °F - 10.0 °F 96% 30.52 in 8.0 mi Calm Calm - N/A   Clear
7:53 AM 18.0 °F 11.1 °F 15.1 °F 88% 30.50 in 7.0 mi West 4.6 mph - N/A   Clear
8:53 AM 25.0 °F 18.1 °F 21.9 °F 88% 30.49 in 8.0 mi WSW 5.8 mph - N/A   Clear
9:53 AM 27.0 °F 23.0 °F 24.1 °F 89% 30.48 in 8.0 mi WSW 3.5 mph - N/A   Clear
10:53 AM 30.9 °F 23.5 °F 24.1 °F 76% 30.45 in 10.0 mi West 8.1 mph - N/A   Clear
11:53 AM 35.1 °F - 24.1 °F 64% 30.40 in 10.0 mi Calm Calm - N/A   Clear
12:53 PM 37.0 °F 34.5 °F 24.1 °F 59% 30.36 in 10.0 mi Variable 3.5 mph - N/A   Clear
1:53 PM 39.0 °F 34.0 °F 23.0 °F 53% 30.32 in 10.0 mi NE 6.9 mph - N/A   Clear
2:53 PM 36.0 °F 31.1 °F 23.0 °F 59% 30.32 in 10.0 mi WNW 5.8 mph - N/A   Clear
3:53 PM 32.0 °F 28.7 °F 21.9 °F 66% 30.31 in 10.0 mi SW 3.5 mph - N/A   Clear
4:53 PM 27.0 °F - 21.0 °F 78% 30.31 in 10.0 mi Calm Calm - N/A   Clear
5:53 PM 21.0 °F - 18.0 °F 88% 30.33 in 10.0 mi Calm Calm - N/A   Clear
6:53 PM 21.0 °F 11.4 °F 17.1 °F 85% 30.32 in 10.0 mi SSE 8.1 mph - N/A   Clear
7:53 PM 21.0 °F - 16.0 °F 81% 30.30 in 9.0 mi Calm Calm - N/A   Clear
8:53 PM 19.9 °F 14.9 °F 16.0 °F 85% 30.27 in 10.0 mi SSE 3.5 mph - N/A   Clear
9:53 PM 19.9 °F 14.9 °F 16.0 °F 85% 30.25 in 9.0 mi SSE 3.5 mph - N/A   Clear
10:53 PM 16.0 °F - 12.9 °F 88% 30.25 in 8.0 mi Calm Calm - N/A   Clear
11:53 PM 18.0 °F 9.8 °F 16.0 °F 92% 30.22 in 8.0 mi SE 5.8 mph - N/A   Clear